Time,TemperatureF,DewpointF,PressureIn,WindDirection,WindDirectionDegrees,WindSpeedMPH,WindSpeedGustMPH,Humidity,HourlyPrecipIn,Conditions,Clouds,dailyrainin,SoftwareType,DateUTC
2013-07-15 00:01:00,76.3,67.8,30.24,SE,135,0.0,0.0,75,0.00,,---,0.00,VWS V14.00,2013-07-15 04:01:00,
2013-07-15 00:02:00,76.3,67.8,30.24,SE,135,0.0,0.0,75,0.00,,---,0.00,VWS V14.00,2013-07-15 04:02:00,
2013-07-15 00:07:00,76.1,68.0,30.24,SE,135,0.0,0.0,76,0.00,,---,0.00,VWS V14.00,2013-07-15 04:07:00,
2013-07-15 00:12:00,76.1,68.0,30.24,SSE,158,0.0,0.0,76,0.00,,---,0.00,VWS V14.00,2013-07-15 04:12:00,
2013-07-15 00:17:00,76.1,68.0,30.24,SSE,158,0.0,0.0,76,0.00,,---,0.00,VWS V14.00,2013-07-15 04:17:00,
2013-07-15 00:22:00,75.9,67.8,30.24,SSE,158,0.0,0.0,76,0.00,,---,0.00,VWS V14.00,2013-07-15 04:22:00,
2013-07-15 00:27:00,75.9,67.8,30.24,SSE,158,0.0,0.0,76,0.00,,---,0.00,VWS V14.00,2013-07-15 04:27:00,
2013-07-15 00:32:00,75.9,67.8,30.24,SE,135,0.0,0.0,76,0.00,,---,0.00,VWS V14.00,2013-07-15 04:32:00,
2013-07-15 00:37:00,75.7,67.6,30.24,SE,135,0.0,0.0,76,0.00,,---,0.00,VWS V14.00,2013-07-15 04:37:00,
2013-07-15 00:42:00,75.7,67.6,30.24,SSE,158,0.0,0.0,76,0.00,,---,0.00,VWS V14.00,2013-07-15 04:42:00,
2013-07-15 00:47:00,75.7,68.0,30.24,SSE,158,0.0,0.0,77,0.00,,---,0.00,VWS V14.00,2013-07-15 04:47:00,
2013-07-15 00:52:00,75.7,67.6,30.24,SSE,158,2.7,2.7,76,0.00,,---,0.00,VWS V14.00,2013-07-15 04:52:00,
2013-07-15 00:57:00,75.7,67.6,30.24,SSE,158,0.0,1.3,76,0.00,,---,0.00,VWS V14.00,2013-07-15 04:57:00,
2013-07-15 01:02:00,75.9,67.8,30.24,SSE,158,0.0,0.0,76,0.00,,---,0.00,VWS V14.00,2013-07-15 05:02:00,
2013-07-15 01:07:00,75.9,67.8,30.24,SSE,158,0.0,0.0,76,0.00,,---,0.00,VWS V14.00,2013-07-15 05:07:00,
2013-07-15 01:12:00,75.9,67.8,30.24,SSE,158,1.1,2.2,76,0.00,,---,0.00,VWS V14.00,2013-07-15 05:12:00,
2013-07-15 01:17:00,75.9,67.8,30.24,SSE,158,0.0,0.0,76,0.00,,---,0.00,VWS V14.00,2013-07-15 05:17:00,
2013-07-15 01:22:00,75.7,67.6,30.24,SSE,158,0.0,0.0,76,0.00,,---,0.00,VWS V14.00,2013-07-15 05:22:00,
2013-07-15 01:27:00,75.6,67.5,30.24,SSE,158,0.0,0.0,76,0.00,,---,0.00,VWS V14.00,2013-07-15 05:27:00,
2013-07-15 01:32:00,75.6,67.5,30.24,SSE,158,0.0,0.0,76,0.00,,---,0.00,VWS V14.00,2013-07-15 05:32:00,
2013-07-15 01:37:00,75.4,67.3,30.24,SSE,158,0.0,0.0,76,0.00,,---,0.00,VWS V14.00,2013-07-15 05:37:00,
2013-07-15 01:42:00,75.4,67.3,30.24,SSE,158,0.0,0.0,76,0.00,,---,0.00,VWS V14.00,2013-07-15 05:42:00,
2013-07-15 01:47:00,75.2,67.1,30.24,SSE,158,0.0,0.0,76,0.00,,---,0.00,VWS V14.00,2013-07-15 05:47:00,
2013-07-15 01:52:00,75.0,67.3,30.24,SSE,158,0.0,0.0,77,0.00,,---,0.00,VWS V14.00,2013-07-15 05:52:00,
2013-07-15 01:57:00,74.8,67.2,30.24,SSE,158,0.0,0.0,77,0.00,,---,0.00,VWS V14.00,2013-07-15 05:57:00,
2013-07-15 02:03:00,74.8,67.5,30.24,SSE,158,0.0,0.0,78,0.00,,---,0.00,VWS V14.00,2013-07-15 06:03:00,
2013-07-15 02:08:00,74.7,67.3,30.24,South,180,0.0,2.5,78,0.00,,---,0.00,VWS V14.00,2013-07-15 06:08:00,
2013-07-15 02:13:00,74.7,67.3,30.24,South,180,0.0,0.0,78,0.00,,---,0.00,VWS V14.00,2013-07-15 06:13:00,
2013-07-15 02:18:00,74.5,67.2,30.24,South,180,0.0,0.0,78,0.00,,---,0.00,VWS V14.00,2013-07-15 06:18:00,
2013-07-15 02:23:00,74.5,67.2,30.24,South,180,0.0,0.0,78,0.00,,---,0.00,VWS V14.00,2013-07-15 06:23:00,
2013-07-15 02:28:00,74.3,67.0,30.24,South,180,0.0,0.0,78,0.00,,---,0.00,VWS V14.00,2013-07-15 06:28:00,
2013-07-15 02:33:00,74.3,67.4,30.24,South,180,0.0,0.0,79,0.00,,---,0.00,VWS V14.00,2013-07-15 06:33:00,
2013-07-15 02:38:00,74.1,67.2,30.21,South,180,0.0,0.0,79,0.00,,---,0.00,VWS V14.00,2013-07-15 06:38:00,
2013-07-15 02:43:00,73.9,67.0,30.21,South,180,0.0,0.0,79,0.00,,---,0.00,VWS V14.00,2013-07-15 06:43:00,
2013-07-15 02:48:00,73.9,67.0,30.21,South,180,0.0,0.0,79,0.00,,---,0.00,VWS V14.00,2013-07-15 06:48:00,
2013-07-15 02:53:00,73.8,67.2,30.21,South,180,0.0,0.0,80,0.00,,---,0.00,VWS V14.00,2013-07-15 06:53:00,
2013-07-15 02:58:00,73.6,67.0,30.21,South,180,0.0,0.0,80,0.00,,---,0.00,VWS V14.00,2013-07-15 06:58:00,
2013-07-15 03:03:00,73.6,67.0,30.21,South,180,0.0,0.0,80,0.00,,---,0.00,VWS V14.00,2013-07-15 07:03:00,
2013-07-15 03:08:00,73.4,66.9,30.24,South,180,0.0,0.0,80,0.00,,---,0.00,VWS V14.00,2013-07-15 07:08:00,
2013-07-15 03:13:00,73.4,66.9,30.24,South,180,0.0,0.0,80,0.00,,---,0.00,VWS V14.00,2013-07-15 07:13:00,
2013-07-15 03:18:00,73.2,67.1,30.24,South,180,0.0,0.0,81,0.00,,---,0.00,VWS V14.00,2013-07-15 07:18:00,
2013-07-15 03:23:00,73.2,67.4,30.21,South,180,0.0,0.0,82,0.00,,---,0.00,VWS V14.00,2013-07-15 07:23:00,
2013-07-15 03:28:00,73.2,67.4,30.21,South,180,0.0,0.0,82,0.00,,---,0.00,VWS V14.00,2013-07-15 07:28:00,
2013-07-15 03:33:00,73.0,67.2,30.21,South,180,0.0,0.0,82,0.00,,---,0.00,VWS V14.00,2013-07-15 07:33:00,
2013-07-15 03:38:00,73.0,67.2,30.24,South,180,0.0,0.0,82,0.00,,---,0.00,VWS V14.00,2013-07-15 07:38:00,
2013-07-15 03:43:00,73.0,67.6,30.24,SSE,158,0.0,0.0,83,0.00,,---,0.00,VWS V14.00,2013-07-15 07:43:00,
2013-07-15 03:48:00,73.0,67.6,30.24,SSE,158,0.0,0.0,83,0.00,,---,0.00,VWS V14.00,2013-07-15 07:48:00,
2013-07-15 03:53:00,72.9,67.4,30.21,SSE,158,0.0,0.0,83,0.00,,---,0.00,VWS V14.00,2013-07-15 07:53:00,
2013-07-15 03:58:00,72.9,67.4,30.21,SSE,158,0.0,1.3,83,0.00,,---,0.00,VWS V14.00,2013-07-15 07:58:00,
2013-07-15 04:03:00,72.9,67.8,30.21,SSE,158,0.0,0.0,84,0.00,,---,0.00,VWS V14.00,2013-07-15 08:03:00,
2013-07-15 04:08:00,72.7,67.6,30.24,SSE,158,0.0,0.0,84,0.00,,---,0.00,VWS V14.00,2013-07-15 08:08:00,
2013-07-15 04:13:00,72.7,67.6,30.24,SSE,158,0.0,0.0,84,0.00,,---,0.00,VWS V14.00,2013-07-15 08:13:00,
2013-07-15 04:18:00,72.7,67.6,30.24,SSE,158,0.0,0.0,84,0.00,,---,0.00,VWS V14.00,2013-07-15 08:18:00,
2013-07-15 04:23:00,72.5,67.4,30.24,SSE,158,0.0,0.0,84,0.00,,---,0.00,VWS V14.00,2013-07-15 08:23:00,
2013-07-15 04:28:00,72.5,67.7,30.24,SSE,158,0.0,0.0,85,0.00,,---,0.00,VWS V14.00,2013-07-15 08:28:00,
2013-07-15 04:33:00,72.5,67.7,30.24,SSE,158,0.0,0.0,85,0.00,,---,0.00,VWS V14.00,2013-07-15 08:33:00,
2013-07-15 04:38:00,72.3,67.6,30.24,SSE,158,0.0,0.0,85,0.00,,---,0.00,VWS V14.00,2013-07-15 08:38:00,
2013-07-15 04:43:00,72.1,67.4,30.24,SSE,158,0.0,0.0,85,0.00,,---,0.00,VWS V14.00,2013-07-15 08:43:00,
2013-07-15 04:48:00,72.1,67.7,30.24,SSE,158,0.0,0.0,86,0.00,,---,0.00,VWS V14.00,2013-07-15 08:48:00,
2013-07-15 04:53:00,72.1,67.7,30.24,SSE,158,0.0,0.0,86,0.00,,---,0.00,VWS V14.00,2013-07-15 08:53:00,
2013-07-15 04:58:00,72.0,67.6,30.24,SSE,158,0.0,0.0,86,0.00,,---,0.00,VWS V14.00,2013-07-15 08:58:00,
2013-07-15 05:03:00,71.8,67.4,30.24,SSE,158,0.0,0.0,86,0.00,,---,0.00,VWS V14.00,2013-07-15 09:03:00,
2013-07-15 05:08:00,71.8,67.7,30.24,SSE,158,0.0,0.0,87,0.00,,---,0.00,VWS V14.00,2013-07-15 09:08:00,
2013-07-15 05:13:00,71.6,67.5,30.24,SSE,158,0.0,0.0,87,0.00,,---,0.00,VWS V14.00,2013-07-15 09:13:00,
2013-07-15 05:18:00,71.6,67.5,30.24,SSE,158,0.0,0.0,87,0.00,,---,0.00,VWS V14.00,2013-07-15 09:18:00,
2013-07-15 05:23:00,71.4,67.7,30.24,SSE,158,0.0,0.0,88,0.00,,---,0.00,VWS V14.00,2013-07-15 09:23:00,
2013-07-15 05:28:00,71.4,67.7,30.24,SSE,158,0.0,0.0,88,0.00,,---,0.00,VWS V14.00,2013-07-15 09:28:00,
2013-07-15 05:33:00,71.2,67.5,30.24,SSE,158,0.0,0.0,88,0.00,,---,0.00,VWS V14.00,2013-07-15 09:33:00,
2013-07-15 05:38:00,71.2,67.5,30.24,SSE,158,0.0,0.0,88,0.00,,---,0.00,VWS V14.00,2013-07-15 09:38:00,
2013-07-15 05:43:00,71.2,67.5,30.24,SSE,158,0.0,0.0,88,0.00,,---,0.00,VWS V14.00,2013-07-15 09:43:00,
2013-07-15 05:48:00,71.1,67.7,30.24,SSE,158,0.0,0.0,89,0.00,,---,0.00,VWS V14.00,2013-07-15 09:48:00,
2013-07-15 05:53:00,71.1,67.7,30.24,SSE,158,0.0,0.0,89,0.00,,---,0.00,VWS V14.00,2013-07-15 09:53:00,
2013-07-15 05:58:00,71.1,67.7,30.24,SSE,158,0.0,0.0,89,0.00,,---,0.00,VWS V14.00,2013-07-15 09:58:00,
2013-07-15 06:03:00,70.9,67.5,30.24,SSE,158,0.0,0.0,89,0.00,,---,0.00,VWS V14.00,2013-07-15 10:03:00,
2013-07-15 06:08:00,70.9,67.5,30.24,SSE,158,0.0,0.0,89,0.00,,---,0.00,VWS V14.00,2013-07-15 10:08:00,
2013-07-15 06:13:00,70.9,67.5,30.24,SSE,158,0.0,0.0,89,0.00,,---,0.00,VWS V14.00,2013-07-15 10:13:00,
2013-07-15 06:18:00,70.9,67.5,30.24,SSE,158,0.0,0.0,89,0.00,,---,0.00,VWS V14.00,2013-07-15 10:18:00,
2013-07-15 06:23:00,70.7,67.3,30.21,SSE,158,0.0,0.0,89,0.00,,---,0.00,VWS V14.00,2013-07-15 10:23:00,
2013-07-15 06:28:00,70.7,67.3,30.21,SSE,158,0.0,0.0,89,0.00,,---,0.00,VWS V14.00,2013-07-15 10:28:00,
2013-07-15 06:33:00,70.7,67.6,30.21,SSE,158,0.0,0.0,90,0.00,,---,0.00,VWS V14.00,2013-07-15 10:33:00,
2013-07-15 06:38:00,70.7,67.6,30.24,SSE,158,0.0,0.0,90,0.00,,---,0.00,VWS V14.00,2013-07-15 10:38:00,
2013-07-15 06:43:00,70.7,67.6,30.24,SSE,158,0.0,0.0,90,0.00,,---,0.00,VWS V14.00,2013-07-15 10:43:00,
2013-07-15 06:48:00,70.7,67.6,30.24,SSE,158,0.0,0.0,90,0.00,,---,0.00,VWS V14.00,2013-07-15 10:48:00,
2013-07-15 06:53:00,70.9,67.8,30.24,SSE,158,0.0,0.0,90,0.00,,---,0.00,VWS V14.00,2013-07-15 10:53:00,
2013-07-15 06:59:00,70.9,67.8,30.24,SSE,158,0.0,0.0,90,0.00,,---,0.00,VWS V14.00,2013-07-15 10:59:00,
2013-07-15 07:04:00,70.9,67.8,30.24,SSE,158,0.0,0.0,90,0.00,,---,0.00,VWS V14.00,2013-07-15 11:04:00,
2013-07-15 07:09:00,71.1,68.0,30.24,SSE,158,0.0,0.0,90,0.00,,---,0.00,VWS V14.00,2013-07-15 11:09:00,
2013-07-15 07:14:00,71.1,68.0,30.24,SSE,158,0.0,0.0,90,0.00,,---,0.00,VWS V14.00,2013-07-15 11:14:00,
2013-07-15 07:19:00,71.2,68.2,30.24,SSE,158,0.0,0.0,90,0.00,,---,0.00,VWS V14.00,2013-07-15 11:19:00,
2013-07-15 07:24:00,71.4,68.3,30.24,SSE,158,0.0,0.0,90,0.00,,---,0.00,VWS V14.00,2013-07-15 11:24:00,
2013-07-15 07:29:00,71.4,68.3,30.24,SSE,158,0.0,0.0,90,0.00,,---,0.00,VWS V14.00,2013-07-15 11:29:00,
2013-07-15 07:34:00,71.8,68.7,30.24,SSE,158,0.0,0.0,90,0.00,,---,0.00,VWS V14.00,2013-07-15 11:34:00,
2013-07-15 07:39:00,72.0,68.9,30.24,SSE,158,0.0,0.0,90,0.00,,---,0.00,VWS V14.00,2013-07-15 11:39:00,
2013-07-15 07:44:00,72.1,69.1,30.24,SSE,158,0.0,0.0,90,0.00,,---,0.00,VWS V14.00,2013-07-15 11:44:00,
2013-07-15 07:49:00,72.3,69.2,30.24,SSE,158,0.0,0.0,90,0.00,,---,0.00,VWS V14.00,2013-07-15 11:49:00,
2013-07-15 07:54:00,72.7,69.6,30.24,SSE,158,0.0,0.0,90,0.00,,---,0.00,VWS V14.00,2013-07-15 11:54:00,
2013-07-15 07:59:00,72.9,69.8,30.24,SE,135,0.0,0.0,90,0.00,,---,0.00,VWS V14.00,2013-07-15 11:59:00,
2013-07-15 08:04:00,73.2,69.8,30.24,SE,135,0.0,0.0,89,0.00,,---,0.00,VWS V14.00,2013-07-15 12:04:00,
2013-07-15 08:09:00,73.6,70.1,30.24,SE,135,0.0,0.0,89,0.00,,---,0.00,VWS V14.00,2013-07-15 12:09:00,
2013-07-15 08:14:00,74.1,70.7,30.24,SE,135,0.0,0.0,89,0.00,,---,0.00,VWS V14.00,2013-07-15 12:14:00,
2013-07-15 08:19:00,74.8,71.1,30.24,SSE,158,0.0,0.0,88,0.00,,---,0.00,VWS V14.00,2013-07-15 12:19:00,
2013-07-15 08:24:00,75.4,71.6,30.27,SSE,158,0.0,0.0,88,0.00,,---,0.00,VWS V14.00,2013-07-15 12:24:00,
2013-07-15 08:29:00,75.7,71.6,30.27,SSE,158,0.0,1.6,87,0.00,,---,0.00,VWS V14.00,2013-07-15 12:29:00,
2013-07-15 08:34:00,76.1,71.6,30.27,ESE,112,0.9,0.9,86,0.00,,---,0.00,VWS V14.00,2013-07-15 12:34:00,
2013-07-15 08:39:00,76.5,71.6,30.27,ESE,112,0.0,0.0,85,0.00,,---,0.00,VWS V14.00,2013-07-15 12:39:00,
2013-07-15 08:44:00,76.6,71.8,30.27,ESE,112,0.0,0.0,85,0.00,,---,0.00,VWS V14.00,2013-07-15 12:44:00,
2013-07-15 08:49:00,77.0,71.8,30.27,SE,135,0.0,0.0,84,0.00,,---,0.00,VWS V14.00,2013-07-15 12:49:00,
2013-07-15 08:54:00,77.4,72.2,30.27,SE,135,1.1,1.1,84,0.00,,---,0.00,VWS V14.00,2013-07-15 12:54:00,
2013-07-15 08:59:00,77.7,72.5,30.27,SSE,158,2.5,2.5,84,0.00,,---,0.00,VWS V14.00,2013-07-15 12:59:00,
2013-07-15 09:04:00,77.9,72.3,30.27,SSE,158,0.0,2.0,83,0.00,,---,0.00,VWS V14.00,2013-07-15 13:04:00,
2013-07-15 09:09:00,78.3,72.3,30.27,SSE,158,0.0,0.9,82,0.00,,---,0.00,VWS V14.00,2013-07-15 13:09:00,
2013-07-15 09:14:00,78.3,72.3,30.27,SSE,158,0.0,0.0,82,0.00,,---,0.00,VWS V14.00,2013-07-15 13:14:00,
2013-07-15 09:19:00,78.6,72.3,30.27,SSE,158,0.0,0.0,81,0.00,,---,0.00,VWS V14.00,2013-07-15 13:19:00,
2013-07-15 09:24:00,78.8,72.1,30.27,NNW,338,0.0,0.0,80,0.00,,---,0.00,VWS V14.00,2013-07-15 13:24:00,
2013-07-15 09:29:00,79.2,72.5,30.27,South,180,0.0,0.0,80,0.00,,---,0.00,VWS V14.00,2013-07-15 13:29:00,
2013-07-15 09:35:00,79.3,72.6,30.27,South,180,0.9,1.6,80,0.00,,---,0.00,VWS V14.00,2013-07-15 13:35:00,
2013-07-15 09:40:00,79.5,72.4,30.27,SSE,158,1.6,2.7,79,0.00,,---,0.00,VWS V14.00,2013-07-15 13:40:00,
2013-07-15 09:45:00,79.7,72.6,30.27,SSE,158,0.0,0.0,79,0.00,,---,0.00,VWS V14.00,2013-07-15 13:45:00,
2013-07-15 09:50:00,79.9,72.8,30.27,SE,135,0.0,1.3,79,0.00,,---,0.00,VWS V14.00,2013-07-15 13:50:00,
2013-07-15 09:55:00,80.2,72.8,30.27,SSE,158,1.1,2.0,78,0.00,,---,0.00,VWS V14.00,2013-07-15 13:55:00,
2013-07-15 10:00:00,80.6,73.1,30.27,NNW,338,0.0,1.3,78,0.00,,---,0.00,VWS V14.00,2013-07-15 14:00:00,
2013-07-15 10:05:00,81.0,73.5,30.27,NE,45,0.0,0.0,78,0.00,,---,0.00,VWS V14.00,2013-07-15 14:05:00,
2013-07-15 10:10:00,81.0,73.1,30.27,ESE,112,0.0,0.0,77,0.00,,---,0.00,VWS V14.00,2013-07-15 14:10:00,
2013-07-15 10:15:00,81.5,73.6,30.27,North,0,0.0,0.0,77,0.00,,---,0.00,VWS V14.00,2013-07-15 14:15:00,
2013-07-15 10:20:00,81.7,73.4,30.27,South,180,1.3,1.3,76,0.00,,---,0.00,VWS V14.00,2013-07-15 14:20:00,
2013-07-15 10:25:00,81.9,73.6,30.27,SE,135,0.0,0.0,76,0.00,,---,0.00,VWS V14.00,2013-07-15 14:25:00,
2013-07-15 10:30:00,82.0,73.3,30.27,WNW,292,0.0,1.6,75,0.00,,---,0.00,VWS V14.00,2013-07-15 14:30:00,
2013-07-15 10:35:00,82.4,73.3,30.27,NW,315,1.1,2.0,74,0.00,,---,0.00,VWS V14.00,2013-07-15 14:35:00,
2013-07-15 10:40:00,82.6,73.5,30.27,NW,315,0.9,0.9,74,0.00,,---,0.00,VWS V14.00,2013-07-15 14:40:00,
2013-07-15 10:46:00,82.9,73.8,30.27,NE,45,1.1,1.1,74,0.00,,---,0.00,VWS V14.00,2013-07-15 14:46:00,
2013-07-15 10:51:00,83.3,73.8,30.27,West,270,0.0,0.0,73,0.00,,---,0.00,VWS V14.00,2013-07-15 14:51:00,
2013-07-15 10:56:00,83.3,73.3,30.27,WNW,292,2.7,2.7,72,0.00,,---,0.00,VWS V14.00,2013-07-15 14:56:00,
2013-07-15 11:01:00,83.7,74.1,30.27,SSE,158,1.1,2.7,73,0.00,,---,0.00,VWS V14.00,2013-07-15 15:01:00,
2013-07-15 11:06:00,84.0,73.6,30.27,NNW,338,1.1,2.2,71,0.00,,---,0.00,VWS V14.00,2013-07-15 15:06:00,
2013-07-15 11:11:00,84.4,73.9,30.27,WSW,248,0.0,0.0,71,0.00,,---,0.00,VWS V14.00,2013-07-15 15:11:00,
2013-07-15 11:17:00,84.7,73.4,30.27,North,0,0.9,2.0,69,0.00,,---,0.00,VWS V14.00,2013-07-15 15:17:00,
2013-07-15 11:22:00,84.4,72.7,30.27,South,180,1.1,1.6,68,0.00,,---,0.00,VWS V14.00,2013-07-15 15:22:00,
2013-07-15 11:27:00,84.2,72.5,30.27,North,0,2.2,2.2,68,0.00,,---,0.00,VWS V14.00,2013-07-15 15:27:00,
2013-07-15 11:32:00,84.0,73.2,30.27,SW,225,0.0,0.0,70,0.00,,---,0.00,VWS V14.00,2013-07-15 15:32:00,
2013-07-15 11:37:00,83.7,72.4,30.27,SW,225,0.0,0.0,69,0.00,,---,0.00,VWS V14.00,2013-07-15 15:37:00,
2013-07-15 11:42:00,83.5,72.2,30.27,SW,225,0.0,0.0,69,0.00,,---,0.00,VWS V14.00,2013-07-15 15:42:00,
2013-07-15 11:47:00,83.5,72.7,30.27,SW,225,0.0,0.0,70,0.00,,---,0.00,VWS V14.00,2013-07-15 15:47:00,
2013-07-15 11:52:00,83.3,72.5,30.24,SW,225,0.0,0.0,70,0.00,,---,0.00,VWS V14.00,2013-07-15 15:52:00,
2013-07-15 11:57:00,83.5,73.5,30.24,South,180,0.0,0.0,72,0.00,,---,0.00,VWS V14.00,2013-07-15 15:57:00,
2013-07-15 12:02:00,84.4,74.4,30.24,South,180,0.0,0.0,72,0.00,,---,0.00,VWS V14.00,2013-07-15 16:02:00,
2013-07-15 12:07:00,84.7,74.3,30.27,West,270,0.0,0.0,71,0.00,,---,0.00,VWS V14.00,2013-07-15 16:07:00,
2013-07-15 12:13:00,84.6,73.7,30.27,SSE,158,0.0,1.1,70,0.00,,---,0.00,VWS V14.00,2013-07-15 16:13:00,
2013-07-15 12:18:00,84.4,73.5,30.27,SSE,158,0.0,0.0,70,0.00,,---,0.00,VWS V14.00,2013-07-15 16:18:00,
2013-07-15 12:23:00,84.2,73.4,30.24,SSE,158,0.0,0.0,70,0.00,,---,0.00,VWS V14.00,2013-07-15 16:23:00,
2013-07-15 12:28:00,84.0,73.6,30.24,SSE,158,0.0,0.0,71,0.00,,---,0.00,VWS V14.00,2013-07-15 16:28:00,
2013-07-15 12:33:00,83.8,73.0,30.24,SE,135,0.0,0.0,70,0.00,,---,0.00,VWS V14.00,2013-07-15 16:33:00,
2013-07-15 12:38:00,84.4,73.9,30.27,SE,135,0.0,0.0,71,0.00,,---,0.00,VWS V14.00,2013-07-15 16:38:00,
2013-07-15 12:43:00,84.6,73.3,30.27,SE,135,0.0,0.0,69,0.00,,---,0.00,VWS V14.00,2013-07-15 16:43:00,
2013-07-15 12:48:00,85.3,74.0,30.27,SE,135,0.0,0.0,69,0.00,,---,0.00,VWS V14.00,2013-07-15 16:48:00,
2013-07-15 12:54:00,85.6,74.7,30.24,SE,135,0.0,1.1,70,0.00,,---,0.00,VWS V14.00,2013-07-15 16:54:00,
2013-07-15 12:59:00,85.6,74.3,30.24,SSE,158,0.0,0.0,69,0.00,,---,0.00,VWS V14.00,2013-07-15 16:59:00,
2013-07-15 13:04:00,86.2,74.8,30.24,SSE,158,0.0,0.0,69,0.00,,---,0.00,VWS V14.00,2013-07-15 17:04:00,
2013-07-15 13:10:00,86.9,74.6,30.24,South,180,0.0,0.0,67,0.00,,---,0.00,VWS V14.00,2013-07-15 17:10:00,
2013-07-15 13:15:00,86.7,74.5,30.24,South,180,0.0,0.0,67,0.00,,---,0.00,VWS V14.00,2013-07-15 17:15:00,
2013-07-15 13:20:00,87.1,74.8,30.24,SSE,158,0.0,0.0,67,0.00,,---,0.00,VWS V14.00,2013-07-15 17:20:00,
2013-07-15 13:25:00,88.2,75.4,30.24,South,180,2.7,3.4,66,0.00,,---,0.00,VWS V14.00,2013-07-15 17:25:00,
2013-07-15 13:30:00,88.7,75.4,30.24,NE,45,0.0,2.9,65,0.00,,---,0.00,VWS V14.00,2013-07-15 17:30:00,
2013-07-15 13:35:00,89.2,75.5,30.24,SSE,158,1.1,3.6,64,0.00,,---,0.00,VWS V14.00,2013-07-15 17:35:00,
2013-07-15 13:40:00,89.6,75.3,30.21,SSE,158,2.0,3.1,63,0.00,,---,0.00,VWS V14.00,2013-07-15 17:40:00,
2013-07-15 13:45:00,90.5,75.2,30.21,SSE,158,1.6,1.6,61,0.00,,---,0.00,VWS V14.00,2013-07-15 17:45:00,
2013-07-15 13:50:00,90.7,74.9,30.21,South,180,1.3,2.2,60,0.00,,---,0.00,VWS V14.00,2013-07-15 17:50:00,
2013-07-15 13:56:00,90.9,74.6,30.21,East,90,0.0,0.0,59,0.00,,---,0.00,VWS V14.00,2013-07-15 17:56:00,
2013-07-15 14:01:00,90.7,73.4,30.21,NNW,338,1.1,2.2,57,0.00,,---,0.00,VWS V14.00,2013-07-15 18:01:00,
2013-07-15 14:06:00,90.0,73.2,30.24,SE,135,1.6,1.6,58,0.00,,---,0.00,VWS V14.00,2013-07-15 18:06:00,
2013-07-15 14:11:00,90.3,73.6,30.24,South,180,1.6,2.0,58,0.00,,---,0.00,VWS V14.00,2013-07-15 18:11:00,
2013-07-15 14:16:00,90.1,72.9,30.24,South,180,1.3,1.3,57,0.00,,---,0.00,VWS V14.00,2013-07-15 18:16:00,
2013-07-15 14:21:00,89.2,72.0,30.24,NE,45,0.0,0.0,57,0.00,,---,0.00,VWS V14.00,2013-07-15 18:21:00,
2013-07-15 14:26:00,88.7,72.0,30.24,North,0,2.0,2.0,58,0.00,,---,0.00,VWS V14.00,2013-07-15 18:26:00,
2013-07-15 14:31:00,89.4,73.7,30.24,South,180,1.1,2.5,60,0.00,,---,0.00,VWS V14.00,2013-07-15 18:31:00,
2013-07-15 14:36:00,90.1,73.9,30.24,SSE,158,1.1,1.6,59,0.00,,---,0.00,VWS V14.00,2013-07-15 18:36:00,
2013-07-15 14:41:00,90.0,73.2,30.24,NE,45,0.0,1.1,58,0.00,,---,0.00,VWS V14.00,2013-07-15 18:41:00,
2013-07-15 14:46:00,90.1,72.9,30.24,SSE,158,0.0,0.0,57,0.00,,---,0.00,VWS V14.00,2013-07-15 18:46:00,
2013-07-15 14:52:00,89.2,72.5,30.24,SSE,158,0.0,0.0,58,0.00,,---,0.00,VWS V14.00,2013-07-15 18:52:00,
2013-07-15 14:57:00,88.9,72.2,30.24,SSE,158,1.3,1.6,58,0.00,,---,0.00,VWS V14.00,2013-07-15 18:57:00,
2013-07-15 15:02:00,89.1,72.4,30.24,North,0,1.6,1.6,58,0.00,,---,0.00,VWS V14.00,2013-07-15 19:02:00,
2013-07-15 15:07:00,89.1,72.4,30.24,ESE,112,0.0,0.0,58,0.00,,---,0.00,VWS V14.00,2013-07-15 19:07:00,
2013-07-15 15:12:00,88.9,72.7,30.24,SSE,158,0.0,0.0,59,0.00,,---,0.00,VWS V14.00,2013-07-15 19:12:00,
2013-07-15 15:17:00,88.7,72.5,30.24,SSE,158,0.0,0.0,59,0.00,,---,0.00,VWS V14.00,2013-07-15 19:17:00,
2013-07-15 15:22:00,88.5,72.9,30.21,SSE,158,0.0,0.0,60,0.00,,---,0.00,VWS V14.00,2013-07-15 19:22:00,
2013-07-15 15:27:00,89.1,72.9,30.21,North,0,1.1,1.1,59,0.00,,---,0.00,VWS V14.00,2013-07-15 19:27:00,
2013-07-15 15:32:00,90.0,73.2,30.21,North,0,0.0,0.9,58,0.00,,---,0.00,VWS V14.00,2013-07-15 19:32:00,
2013-07-15 15:37:00,90.5,73.2,30.21,North,0,0.9,1.3,57,0.00,,---,0.00,VWS V14.00,2013-07-15 19:37:00,
2013-07-15 15:42:00,91.0,74.2,30.21,East,90,2.0,2.0,58,0.00,,---,0.00,VWS V14.00,2013-07-15 19:42:00,
2013-07-15 15:47:00,91.4,74.0,30.21,SSE,158,0.0,1.6,57,0.00,,---,0.00,VWS V14.00,2013-07-15 19:47:00,
2013-07-15 15:52:00,91.6,72.0,30.21,SE,135,0.0,0.0,53,0.00,,---,0.00,VWS V14.00,2013-07-15 19:52:00,
2013-07-15 15:57:00,91.8,71.7,30.21,SE,135,1.6,1.6,52,0.00,,---,0.00,VWS V14.00,2013-07-15 19:57:00,
2013-07-15 16:02:00,91.8,71.7,30.21,South,180,4.3,4.3,52,0.00,,---,0.00,VWS V14.00,2013-07-15 20:02:00,
2013-07-15 16:07:00,91.6,71.5,30.21,SW,225,1.1,1.3,52,0.00,,---,0.00,VWS V14.00,2013-07-15 20:07:00,
2013-07-15 16:13:00,91.6,72.0,30.21,South,180,1.1,2.9,53,0.00,,---,0.00,VWS V14.00,2013-07-15 20:13:00,
2013-07-15 16:18:00,91.2,72.3,30.21,SSW,202,1.1,1.1,54,0.00,,---,0.00,VWS V14.00,2013-07-15 20:18:00,
2013-07-15 16:23:00,90.7,71.8,30.21,SSE,158,1.6,1.6,54,0.00,,---,0.00,VWS V14.00,2013-07-15 20:23:00,
2013-07-15 16:28:00,90.7,72.3,30.21,SE,135,3.6,3.6,55,0.00,,---,0.00,VWS V14.00,2013-07-15 20:28:00,
2013-07-15 16:33:00,89.8,71.5,30.21,SW,225,3.4,3.4,55,0.00,,---,0.00,VWS V14.00,2013-07-15 20:33:00,
2013-07-15 16:38:00,89.8,72.0,30.21,SSE,158,1.3,2.9,56,0.00,,---,0.00,VWS V14.00,2013-07-15 20:38:00,
2013-07-15 16:43:00,90.0,72.7,30.21,SSE,158,2.5,2.5,57,0.00,,---,0.00,VWS V14.00,2013-07-15 20:43:00,
2013-07-15 16:49:00,89.8,72.0,30.21,SSE,158,2.7,2.7,56,0.00,,---,0.00,VWS V14.00,2013-07-15 20:49:00,
2013-07-15 16:54:00,89.4,72.2,30.18,SSE,158,0.0,0.0,57,0.00,,---,0.00,VWS V14.00,2013-07-15 20:54:00,
2013-07-15 16:59:00,89.6,72.4,30.18,NW,315,1.1,2.5,57,0.00,,---,0.00,VWS V14.00,2013-07-15 20:59:00,
2013-07-15 17:04:00,89.8,72.0,30.18,SE,135,2.0,2.0,56,0.00,,---,0.00,VWS V14.00,2013-07-15 21:04:00,
2013-07-15 17:09:00,89.6,72.4,30.18,SSE,158,2.7,2.7,57,0.00,,---,0.00,VWS V14.00,2013-07-15 21:09:00,
2013-07-15 17:14:00,89.2,71.5,30.18,SSE,158,0.0,0.0,56,0.00,,---,0.00,VWS V14.00,2013-07-15 21:14:00,
2013-07-15 17:19:00,88.9,71.7,30.18,WSW,248,0.0,0.0,57,0.00,,---,0.00,VWS V14.00,2013-07-15 21:19:00,
2013-07-15 17:24:00,88.9,71.7,30.18,SSE,158,4.3,4.3,57,0.00,,---,0.00,VWS V14.00,2013-07-15 21:24:00,
2013-07-15 17:30:00,88.9,71.7,30.18,SSE,158,3.1,3.1,57,0.00,,---,0.00,VWS V14.00,2013-07-15 21:30:00,
2013-07-15 17:35:00,88.7,72.0,30.18,SSE,158,0.0,1.3,58,0.00,,---,0.00,VWS V14.00,2013-07-15 21:35:00,
2013-07-15 17:40:00,88.3,71.7,30.18,WSW,248,1.6,1.6,58,0.00,,---,0.00,VWS V14.00,2013-07-15 21:40:00,
2013-07-15 17:45:00,87.8,72.2,30.18,WSW,248,0.0,1.3,60,0.00,,---,0.00,VWS V14.00,2013-07-15 21:45:00,
2013-07-15 17:50:00,87.3,72.2,30.18,SW,225,0.9,1.6,61,0.00,,---,0.00,VWS V14.00,2013-07-15 21:50:00,
2013-07-15 17:55:00,86.9,72.3,30.18,SSW,202,0.0,0.0,62,0.00,,---,0.00,VWS V14.00,2013-07-15 21:55:00,
2013-07-15 18:00:00,86.4,72.3,30.18,SW,225,0.0,0.0,63,0.00,,---,0.00,VWS V14.00,2013-07-15 22:00:00,
2013-07-15 18:06:00,86.2,72.1,30.21,SW,225,1.1,1.3,63,0.00,,---,0.00,VWS V14.00,2013-07-15 22:06:00,
2013-07-15 18:11:00,85.8,72.2,30.21,WSW,248,1.6,1.6,64,0.00,,---,0.00,VWS V14.00,2013-07-15 22:11:00,
2013-07-15 18:16:00,85.5,71.9,30.21,SSW,202,1.3,1.3,64,0.00,,---,0.00,VWS V14.00,2013-07-15 22:16:00,
2013-07-15 18:21:00,84.9,71.8,30.18,WSW,248,0.0,0.0,65,0.00,,---,0.00,VWS V14.00,2013-07-15 22:21:00,
2013-07-15 18:26:00,84.6,72.0,30.18,WSW,248,0.0,0.0,66,0.00,,---,0.00,VWS V14.00,2013-07-15 22:26:00,
2013-07-15 18:31:00,84.0,71.9,30.18,WSW,248,0.0,0.0,67,0.00,,---,0.00,VWS V14.00,2013-07-15 22:31:00,
2013-07-15 18:36:00,83.7,72.0,30.18,WSW,248,1.6,1.6,68,0.00,,---,0.00,VWS V14.00,2013-07-15 22:36:00,
2013-07-15 18:41:00,83.3,72.5,30.18,WSW,248,1.3,1.3,70,0.00,,---,0.00,VWS V14.00,2013-07-15 22:41:00,
2013-07-15 18:46:00,82.9,72.6,30.18,WSW,248,0.0,0.0,71,0.00,,---,0.00,VWS V14.00,2013-07-15 22:46:00,
2013-07-15 18:51:00,82.6,72.7,30.21,WSW,248,1.6,2.2,72,0.00,,---,0.00,VWS V14.00,2013-07-15 22:51:00,
2013-07-15 18:56:00,82.2,72.7,30.21,West,270,0.0,0.0,73,0.00,,---,0.00,VWS V14.00,2013-07-15 22:56:00,
2013-07-15 19:02:00,81.9,72.8,30.21,West,270,1.6,1.6,74,0.00,,---,0.00,VWS V14.00,2013-07-15 23:02:00,
2013-07-15 19:07:00,81.9,72.8,30.21,West,270,1.1,1.1,74,0.00,,---,0.00,VWS V14.00,2013-07-15 23:07:00,
2013-07-15 19:12:00,81.7,72.6,30.21,West,270,0.0,0.9,74,0.00,,---,0.00,VWS V14.00,2013-07-15 23:12:00,
2013-07-15 19:18:00,81.5,72.8,30.21,West,270,0.0,0.0,75,0.00,,---,0.00,VWS V14.00,2013-07-15 23:18:00,
2013-07-15 19:23:00,81.3,72.6,30.21,West,270,0.0,0.0,75,0.00,,---,0.00,VWS V14.00,2013-07-15 23:23:00,
2013-07-15 19:28:00,81.3,72.6,30.21,West,270,0.0,0.0,75,0.00,,---,0.00,VWS V14.00,2013-07-15 23:28:00,
2013-07-15 19:33:00,81.1,72.9,30.21,West,270,0.0,0.0,76,0.00,,---,0.00,VWS V14.00,2013-07-15 23:33:00,
2013-07-15 19:38:00,81.1,72.9,30.21,West,270,0.0,0.0,76,0.00,,---,0.00,VWS V14.00,2013-07-15 23:38:00,
2013-07-15 19:44:00,81.1,72.9,30.21,WSW,248,0.0,0.9,76,0.00,,---,0.00,VWS V14.00,2013-07-15 23:44:00,
2013-07-15 19:49:00,81.0,72.7,30.21,WSW,248,0.0,0.0,76,0.00,,---,0.00,VWS V14.00,2013-07-15 23:49:00,
2013-07-15 19:54:00,81.0,72.7,30.21,WSW,248,0.0,0.0,76,0.00,,---,0.00,VWS V14.00,2013-07-15 23:54:00,
2013-07-15 19:59:00,81.0,72.7,30.21,WSW,248,0.0,0.0,76,0.00,,---,0.00,VWS V14.00,2013-07-15 23:59:00,
2013-07-15 20:04:00,81.0,73.1,30.21,WSW,248,0.0,0.0,77,0.00,,---,0.00,VWS V14.00,2013-07-16 00:04:00,
2013-07-15 20:09:00,81.0,73.1,30.21,WSW,248,0.0,0.0,77,0.00,,---,0.00,VWS V14.00,2013-07-16 00:09:00,
2013-07-15 20:14:00,81.0,72.7,30.21,WSW,248,0.0,0.0,76,0.00,,---,0.00,VWS V14.00,2013-07-16 00:14:00,
2013-07-15 20:19:00,80.8,72.5,30.21,WSW,248,0.0,0.0,76,0.00,,---,0.00,VWS V14.00,2013-07-16 00:19:00,
2013-07-15 20:24:00,80.8,72.9,30.21,WSW,248,0.0,0.0,77,0.00,,---,0.00,VWS V14.00,2013-07-16 00:24:00,
2013-07-15 20:29:00,80.8,72.9,30.21,WSW,248,0.0,0.0,77,0.00,,---,0.00,VWS V14.00,2013-07-16 00:29:00,
2013-07-15 20:34:00,80.6,72.7,30.21,WSW,248,0.0,0.0,77,0.00,,---,0.00,VWS V14.00,2013-07-16 00:34:00,
2013-07-15 20:39:00,80.6,72.7,30.21,WSW,248,0.0,0.0,77,0.00,,---,0.00,VWS V14.00,2013-07-16 00:39:00,
2013-07-15 20:45:00,80.6,72.7,30.21,WSW,248,0.0,0.0,77,0.00,,---,0.00,VWS V14.00,2013-07-16 00:45:00,
2013-07-15 20:50:00,80.6,72.7,30.21,WSW,248,0.0,0.0,77,0.00,,---,0.00,VWS V14.00,2013-07-16 00:50:00,
2013-07-15 20:55:00,80.4,72.9,30.24,WSW,248,0.0,0.0,78,0.00,,---,0.00,VWS V14.00,2013-07-16 00:55:00,
2013-07-15 21:00:00,80.4,72.9,30.24,WSW,248,0.0,0.0,78,0.00,,---,0.00,VWS V14.00,2013-07-16 01:00:00,
2013-07-15 21:05:00,80.2,72.8,30.24,WSW,248,0.0,0.0,78,0.00,,---,0.00,VWS V14.00,2013-07-16 01:05:00,
2013-07-15 21:10:00,80.2,72.8,30.24,WSW,248,0.0,0.0,78,0.00,,---,0.00,VWS V14.00,2013-07-16 01:10:00,
2013-07-15 21:16:00,80.1,72.6,30.24,WSW,248,0.0,0.0,78,0.00,,---,0.00,VWS V14.00,2013-07-16 01:16:00,
2013-07-15 21:21:00,80.1,73.0,30.24,WSW,248,0.0,0.0,79,0.00,,---,0.00,VWS V14.00,2013-07-16 01:21:00,
2013-07-15 21:26:00,79.9,72.8,30.24,WSW,248,0.0,0.0,79,0.00,,---,0.00,VWS V14.00,2013-07-16 01:26:00,
2013-07-15 21:31:00,79.5,72.4,30.24,WSW,248,0.0,0.0,79,0.00,,---,0.00,VWS V14.00,2013-07-16 01:31:00,
2013-07-15 21:36:00,79.3,72.6,30.24,WSW,248,0.0,0.0,80,0.00,,---,0.00,VWS V14.00,2013-07-16 01:36:00,
2013-07-15 21:41:00,79.2,72.8,30.24,WSW,248,0.0,0.0,81,0.00,,---,0.00,VWS V14.00,2013-07-16 01:41:00,
2013-07-15 21:46:00,79.0,72.7,30.24,WSW,248,0.0,0.0,81,0.00,,---,0.00,VWS V14.00,2013-07-16 01:46:00,
2013-07-15 21:51:00,78.8,72.8,30.24,WSW,248,0.0,0.0,82,0.00,,---,0.00,VWS V14.00,2013-07-16 01:51:00,
2013-07-15 21:56:00,78.6,73.0,30.24,WSW,248,0.0,0.0,83,0.00,,---,0.00,VWS V14.00,2013-07-16 01:56:00,
2013-07-15 22:02:00,78.4,72.8,30.24,WSW,248,0.0,0.0,83,0.00,,---,0.00,VWS V14.00,2013-07-16 02:02:00,
2013-07-15 22:07:00,78.3,73.0,30.27,WSW,248,0.0,0.0,84,0.00,,---,0.00,VWS V14.00,2013-07-16 02:07:00,
2013-07-15 22:12:00,78.3,73.0,30.27,WSW,248,0.0,0.0,84,0.00,,---,0.00,VWS V14.00,2013-07-16 02:12:00,
2013-07-15 22:17:00,78.1,73.2,30.27,WSW,248,0.0,0.0,85,0.00,,---,0.00,VWS V14.00,2013-07-16 02:17:00,
2013-07-15 22:22:00,78.1,73.2,30.27,WSW,248,0.0,0.0,85,0.00,,---,0.00,VWS V14.00,2013-07-16 02:22:00,
2013-07-15 22:27:00,77.9,73.0,30.27,WSW,248,0.0,0.0,85,0.00,,---,0.00,VWS V14.00,2013-07-16 02:27:00,
2013-07-15 22:32:00,77.9,73.0,30.27,WSW,248,0.0,0.0,85,0.00,,---,0.00,VWS V14.00,2013-07-16 02:32:00,
2013-07-15 22:37:00,77.7,72.8,30.30,WSW,248,0.0,0.0,85,0.00,,---,0.00,VWS V14.00,2013-07-16 02:37:00,
2013-07-15 22:42:00,77.7,72.8,30.30,WSW,248,0.0,0.0,85,0.00,,---,0.00,VWS V14.00,2013-07-16 02:42:00,
2013-07-15 22:47:00,77.5,72.7,30.30,WSW,248,0.0,0.0,85,0.00,,---,0.00,VWS V14.00,2013-07-16 02:47:00,
2013-07-15 22:52:00,77.5,72.7,30.30,WSW,248,0.0,0.0,85,0.00,,---,0.00,VWS V14.00,2013-07-16 02:52:00,
2013-07-15 22:57:00,77.5,72.7,30.30,WSW,248,0.0,0.0,85,0.00,,---,0.00,VWS V14.00,2013-07-16 02:57:00,
2013-07-15 23:02:00,77.4,72.5,30.30,WSW,248,0.0,0.0,85,0.00,,---,0.00,VWS V14.00,2013-07-16 03:02:00,
2013-07-15 23:07:00,77.4,72.5,30.30,WSW,248,0.0,0.0,85,0.00,,---,0.00,VWS V14.00,2013-07-16 03:07:00,
2013-07-15 23:12:00,77.4,72.8,30.30,WSW,248,0.0,0.0,86,0.00,,---,0.00,VWS V14.00,2013-07-16 03:12:00,
2013-07-15 23:17:00,77.4,72.8,30.30,WSW,248,0.0,0.0,86,0.00,,---,0.00,VWS V14.00,2013-07-16 03:17:00,
2013-07-15 23:22:00,77.2,72.7,30.27,WSW,248,0.0,0.0,86,0.00,,---,0.00,VWS V14.00,2013-07-16 03:22:00,
2013-07-15 23:28:00,77.2,72.7,30.27,WSW,248,0.0,0.0,86,0.00,,---,0.00,VWS V14.00,2013-07-16 03:28:00,
2013-07-15 23:33:00,77.2,72.7,30.27,WSW,248,0.0,0.0,86,0.00,,---,0.00,VWS V14.00,2013-07-16 03:33:00,
2013-07-15 23:38:00,77.0,72.5,30.27,WSW,248,0.0,0.0,86,0.00,,---,0.00,VWS V14.00,2013-07-16 03:38:00,
2013-07-15 23:43:00,77.0,72.5,30.27,WSW,248,0.0,0.0,86,0.00,,---,0.00,VWS V14.00,2013-07-16 03:43:00,
2013-07-15 23:49:00,76.8,72.7,30.27,WSW,248,0.0,0.0,87,0.00,,---,0.00,VWS V14.00,2013-07-16 03:49:00,
2013-07-15 23:54:00,76.8,72.7,30.27,WSW,248,0.0,0.0,87,0.00,,---,0.00,VWS V14.00,2013-07-16 03:54:00,
2013-07-15 23:59:00,76.6,72.5,30.27,WSW,248,0.0,0.0,87,0.00,,---,0.00,VWS V14.00,2013-07-16 03:59:00,